TimeEDT,TemperatureF,Dew PointF,Humidity,Sea Level PressureIn,VisibilityMPH,Wind Direction,Wind SpeedMPH,Gust SpeedMPH,PrecipitationIn,Events,Conditions,WindDirDegrees,DateUTC
12:54 AM,48.9,48.0,97,29.93,5.0,WSW,6.9,-,0.01,Rain,Light Rain,250,2011-10-25 04:54:00
1:54 AM,48.9,46.9,93,29.93,6.0,West,6.9,-,0.00,,Mostly Cloudy,260,2011-10-25 05:54:00
2:54 AM,48.0,46.0,93,29.92,8.0,West,8.1,-,N/A,,Clear,260,2011-10-25 06:54:00
3:54 AM,46.0,45.0,96,29.92,5.0,WSW,5.8,-,N/A,,Clear,250,2011-10-25 07:54:00
4:54 AM,45.0,42.1,90,29.92,10.0,West,5.8,-,N/A,,Clear,280,2011-10-25 08:54:00
5:54 AM,45.0,41.0,86,29.91,10.0,West,10.4,-,N/A,,Clear,280,2011-10-25 09:54:00
6:54 AM,44.1,39.9,85,29.91,10.0,WNW,15.0,20.7,N/A,,Clear,290,2011-10-25 10:54:00
7:54 AM,45.0,39.9,82,29.92,10.0,West,18.4,24.2,N/A,,Clear,280,2011-10-25 11:54:00
8:54 AM,46.9,41.0,80,29.94,10.0,West,13.8,-,N/A,,Clear,280,2011-10-25 12:54:00
9:54 AM,50.0,39.9,68,29.94,10.0,WNW,21.9,26.5,N/A,,Clear,290,2011-10-25 13:54:00
10:54 AM,51.1,37.9,61,29.94,10.0,WNW,12.7,28.8,N/A,,Partly Cloudy,290,2011-10-25 14:54:00
11:54 AM,52.0,35.1,53,29.94,10.0,WNW,15.0,26.5,N/A,,Mostly Cloudy,290,2011-10-25 15:54:00
12:54 PM,53.1,34.0,48,29.91,10.0,WNW,21.9,29.9,N/A,,Mostly Cloudy,290,2011-10-25 16:54:00
1:54 PM,53.1,34.0,48,29.90,10.0,WNW,23.0,28.8,N/A,,Clear,290,2011-10-25 17:54:00
2:54 PM,53.6,33.8,47,29.89,10.0,West,16.1,27.6,N/A,,Clear,280,2011-10-25 18:54:00
3:54 PM,54.0,33.1,45,29.91,10.0,WNW,15.0,25.3,N/A,,Clear,290,2011-10-25 19:54:00
4:54 PM,52.0,32.0,47,29.92,10.0,West,18.4,28.8,N/A,,Clear,280,2011-10-25 20:54:00
5:54 PM,50.0,32.0,50,29.95,10.0,West,12.7,-,N/A,,Clear,280,2011-10-25 21:54:00
6:54 PM,48.9,33.1,54,29.97,10.0,WNW,13.8,19.6,N/A,,Clear,290,2011-10-25 22:54:00
7:54 PM,48.0,33.1,56,29.97,10.0,West,15.0,-,N/A,,Clear,280,2011-10-25 23:54:00
8:54 PM,46.4,33.8,62,29.97,10.0,West,9.2,-,N/A,,Clear,280,2011-10-26 00:54:00
9:54 PM,43.0,33.1,68,30.00,10.0,WNW,5.8,-,N/A,,Clear,300,2011-10-26 01:54:00
10:54 PM,41.0,33.1,73,29.99,10.0,West,6.9,-,N/A,,Clear,260,2011-10-26 02:54:00
11:54 PM,39.2,33.8,81,29.99,10.0,WSW,5.8,-,N/A,,Clear,240,2011-10-26 03:54:00